FENGYUN 1C DEB, 36273

Orbit data source: Space-Track

FENGYUN 1C DEB, 36273 is space debris in SSO originally from a launch on Mon, 10 May 1999 UTC launched from the Taiyaun Space Center, China (TSC). Fengyun 1C debris stems from the Chinese weather satellite Fengyun-1C, which was intentionally destroyed by a Chinese anti-satellite missile in 2007. This event dramatically increased the amount of space debris, with thousands of trackable fragments posing hazards to satellites and human spaceflight. The Fengyun 1C debris cloud has become a focal point in discussions about space sustainability and the need for international regulations to prevent the creation of new debris.

Loading next visibility...
Identifier
36273, 1999-025DXA
Orbit
SSO
Country
Flag of CNCN / PRC
Related business
Manufacturer
Unknown
Mission
Spacecraft
Bus & Motor
Unknown
Mass
Unknown
Launch date (UTC)
1999-05-10 (27 years ago)
Launch vehicle
Unknown
Launch site
Taiyaun Space Center, China (TSC)
Object type
Payload
Rocket body
Debris
Shape & HBR
Unknown shape, 0.1 m
Radar Cross Section
Small (<0.1 m²)

Expand to show TLE details & history
Last TLE update: 6 days ago

TLE from 6 days ago
0 FENGYUN 1C DEB
1 36273U 99025DXA 26158.91678366  .00000404  00000-0  21746-3 0  9995
2 36273  99.5841  47.1649 0095651 213.9751 145.5272 14.16774418687420
Epoch: 2026-06-07T22:00Z
TLE epoch observation values (Epoch: 2026-06-07T22:00:10.108Z)
Latitude
-0.00002°
Longitude
-179.18834°
Altitude
896.272 km
Speed
7.375 km/s
True Right ascension
03h 08m 39s
True Declination
0° 00' 00"
Sunlit
Object was in daylight at epoch
Visualization orbit readout
Latitude
Unknown
Longitude
Unknown
Altitude
Unknown
Speed
Unknown
Apparent Right ascension
Unknown
Apparent Declination
Unknown
Sunlit
N/A
Visualization observer readout
Local Sidereal Time
06:09:45
Azimuth
Unknown
Elevation
Unknown
Doppler factor
Unknown
Orbital elements
Apogee altitude
902.468 km
Perigee altitude
764.509 km
Semi-major axis
7,211.626 km
Eccentricity
0.00957
Inclination
99.5841°
RAAN
47.1649°
Arg. of periapsis
213.9751°
True anomaly
146.14153°
Mean anomaly
145.5272°
Eccentric anomaly
145.83497°
Mean motion
3.544 °/min
Orbital period
101.58 mins
BSTAR
0.00021746
Loading maneuver chart data...
Computing Atmospheric mass density...

Documentation

Showing up to 5 results
|